Location: Churchill Northern Studies Centre
(58.7378°N, 93.8201°W)
Time: 02:03:40
(UTC-06:00)

Vanguard 1 Rocket - Visible Passes

Search period start: 19 February 2018 00:00
Search period end: 01 March 2018 00:00
Orbit: 655 x 4222 km, 34.3° (Epoch: 18 February)

Date Brightness Start Highest point End Pass type
(mag) Time Alt. Az. Time Alt. Az. Time Alt. Az.
19 Feb 11.0 01:17:10 30° SE 01:17:10 30° SE 01:28:16 10° ESE visible
19 Feb 10.8 03:34:26 33° SSW 03:36:06 33° SSW 03:53:03 10° SE visible
19 Feb 11.1 05:51:42 14° WSW 06:01:25 19° SW 06:12:30 10° SSW visible
20 Feb 11.3 00:09:47 20° ESE 00:09:47 20° ESE 00:15:37 10° ESE visible
20 Feb 10.8 02:27:02 35° S 02:27:02 35° S 02:42:12 10° SE visible
20 Feb 11.0 04:44:18 24° SW 04:49:55 26° SW 05:04:28 10° S visible
20 Feb 11.3 22:26:24 10° SSW 23:02:26 - E 22:26:47 11° SSW visible
21 Feb 11.1 01:19:42 29° SE 01:19:42 29° SE 01:30:29 10° ESE visible
21 Feb 10.9 03:36:57 31° SSW 03:37:42 32° SSW 03:54:52 10° SSE visible
21 Feb 11.2 05:54:14 13° WSW 06:02:44 16° SW 06:12:43 10° SSW visible
21 Feb 11.2 21:17:34 10° S 21:20:11 14° S 21:20:11 14° S visible
22 Feb 11.4 00:12:25 19° ESE 00:12:25 19° ESE 00:17:53 10° ESE visible
22 Feb 10.9 02:29:42 33° S 02:29:42 33° S 02:44:11 10° SE visible
22 Feb 11.1 04:46:58 22° SW 04:51:20 23° SW 05:05:36 10° S visible
22 Feb 11.2 20:11:16 10° SSE 20:13:36 12° SE 20:13:36 12° SE visible
22 Feb 11.2 22:27:51 10° SSW 23:05:12 - ESE 22:30:56 16° SSW visible
23 Feb 11.1 01:22:29 28° SE 01:22:29 28° SE 01:32:32 10° SE visible
23 Feb 10.9 03:39:46 29° SSW 03:39:46 29° SSW 03:56:25 10° SSE visible
23 Feb 11.3 05:57:03 11° WSW 06:03:56 13° SW 06:11:39 10° SW visible
23 Feb 11.0 21:18:32 10° S 21:24:21 19° SSE 21:24:21 19° SSE visible
23 Feb 11.3 23:40:15 10° SW 00:15:20 18° ESE 00:19:58 10° ESE visible
24 Feb 11.0 02:32:38 31° S 02:32:38 31° S 02:45:56 10° SE visible
24 Feb 11.1 04:49:56 20° SW 04:52:40 20° SW 05:06:13 10° S visible
24 Feb 11.0 20:11:01 10° SSE 20:17:43 16° SE 20:17:43 16° SE visible
24 Feb 11.0 22:29:36 10° SSW 23:08:17 - ESE 22:35:04 21° SSW visible
25 Feb 11.2 01:25:35 25° SSE 01:25:35 25° SSE 01:34:24 10° SE visible
25 Feb 11.0 03:42:53 26° SSW 03:42:53 26° SSW 03:57:36 10° SSE visible
25 Feb 10.8 21:19:57 10° SSW 21:28:25 24° SSE 21:28:25 24° SSE visible
25 Feb 11.2 23:42:23 10° SW 00:18:38 16° SE 00:21:55 10° ESE visible
26 Feb 11.1 02:35:56 27° S 02:35:56 27° S 02:47:25 10° SSE visible
26 Feb 11.2 04:53:15 17° SW 04:53:55 17° SW 05:06:03 10° SSW visible
26 Feb 10.9 20:11:41 10° S 20:21:43 19° SE 20:21:43 19° SE visible
26 Feb 10.8 22:31:36 10° SW 23:11:45 - ESE 22:39:02 26° SSW visible
27 Feb 11.3 00:56:21 10° WSW 01:29:04 22° SSE 01:36:03 10° SE visible
27 Feb 11.1 03:46:22 23° SSW 03:46:22 23° SSW 03:58:20 10° S visible
27 Feb 11.0 19:06:48 10° SE 19:11:46 12° ESE 19:14:57 11° ESE visible
27 Feb 10.7 21:21:43 10° SSW 21:32:17 27° SSE 21:32:17 27° SSE visible
27 Feb 11.0 23:44:41 10° SW 00:22:17 12° SE 00:23:40 10° SE visible
28 Feb 11.2 02:39:36 23° S 02:39:36 23° S 02:48:35 10° SSE visible
28 Feb 11.3 04:56:56 14° SW 04:56:56 14° SW 05:04:33 10° SSW visible
28 Feb 10.8 20:12:57 10° S 20:24:02 22° SE 20:25:27 21° SE visible
28 Feb 10.7 22:33:49 10° SW 23:15:33 - ESE 22:42:46 29° SSW visible
